RH
37 38 36 35 37 45 56 60 58 56 58 61 61 62 66 67 65 69 73 70 66 65 64 59 54 45 36 32 31 30 30 33 35 31 32 36 37 37 34 34 37 41 44 45 43 39 31 27 28 30 32 33 34 34 33 31 31 31 31 30 30 28 26 24 22 21 21 21 21 20 20 21 21 24
34 36 35 33 33 37 43 48 50 50 51 52 52 56 59 58 57 64 72 69 59 60 59 50 46 42 35 30 32 34 34 37 40 36 35 39 40 37 35 36 40 43 46 48 48 46 42 38 37 37 38 41 43 42 40 37 34 33 33 30 29 28 26 26 25 24 22 20 20 20 19 20 19 19
34 35 34 32 32 34 35 37 38 38 38 40 43 50 53 52 51 53 59 61 54 53 51 41 35 34 32 32 34 37 38 39 41 40 38 39 40 40 39 40 41 41 45 48 48 48 48 47 46 45 45 46 48 47 45 42 38 37 37 36 33 32 32 32 32 30 26 22 22 23 22 21 20 19
35 34 34 33 33 33 33 34 34 33 34 34 37 44 48 47 46 45 47 52 52 49 43 36 33 32 32 33 35 38 40 39 40 41 40 40 41 42 42 42 43 43 45 48 48 48 50 50 49 49 49 49 50 49 48 45 41 38 39 40 39 38 37 38 34 29 26 26 29 30 29 27 25 23
37 35 35 35 34 34 34 34 34 34 35 35 36 41 43 41 41 41 40 43 44 43 40 35 34 34 34 33 35 39 40 40 39 39 40 40 40 42 43 43 44 45 47 48 48 48 49 51 50 50 51 51 51 51 49 48 44 39 38 40 42 42 41 40 37 32 31 35 38 38 38 36 34 31
37 35 36 39 39 37 36 35 35 35 36 37 37 37 36 34 35 34 33 36 37 38 39 37 35 35 35 34 34 37 39 40 40 39 39 39 39 41 43 44 45 47 48 48 47 48 49 51 51 50 52 52 52 53 51 48 44 40 39 40 42 44 44 42 41 39 40 42 43 44 45 45 42 38
38 35 36 41 44 42 38 37 36 36 37 37 35 34 32 31 31 30 29 31 33 35 37 37 37 35 34 34 34 35 38 40 42 42 41 40 40 40 42 45 48 48 49 48 48 48 48 50 52 51 53 54 54 53 51 47 44 41 40 41 43 44 45 44 44 44 46 46 46 48 49 48 46 42
47 44 42 45 49 48 42 40 40 39 40 40 37 36 35 34 32 30 29 28 29 32 34 36 37 35 33 35 34 34 37 40 43 44 43 42 41 40 43 48 50 50 49 49 49 49 50 50 52 53 55 57 56 52 49 45 43 42 42 42 42 42 43 45 45 46 49 50 50 51 50 49 46 44
53 53 51 51 55 54 48 45 44 43 44 46 46 46 46 44 40 36 34 31 29 30 31 35 41 41 39 39 37 35 37 42 47 46 43 42 43 45 49 52 52 51 52 51 51 52 54 53 54 55 57 56 53 49 45 42 41 42 43 43 43 43 43 45 47 48 50 53 54 53 51 48 46 44
59 58 57 57 59 59 56 53 50 48 47 48 50 51 51 51 49 46 44 39 33 32 33 36 44 47 46 42 39 37 38 43 48 49 47 49 51 54 55 54 54 54 54 53 53 54 55 56 56 56 56 54 50 45 41 38 40 43 44 44 43 42 42 43 47 49 51 54 55 53 50 48 46 45
64 63 62 62 61 62 62 60 58 54 50 47 50 52 52 52 53 53 52 48 42 41 43 43 46 50 50 48 44 42 42 45 48 49 51 55 57 57 57 56 56 56 55 55 55 55 56 56 56 56 55 52 46 42 39 38 42 47 46 43 42 41 40 41 45 49 52 56 55 52 49 48 46 46
66 65 67 67 65 65 67 67 65 62 56 51 50 53 54 52 54 56 57 55 53 52 52 51 52 53 54 56 55 51 49 51 53 52 53 55 57 58 58 58 58 58 58 57 57 57 57 57 57 56 53 49 44 41 42 44 48 50 47 44 44 43 43 42 43 47 52 55 54 50 50 49 46 47
67 67 70 71 68 67 69 70 69 67 63 58 54 55 56 55 55 58 59 57 57 55 54 55 56 57 58 61 61 58 57 58 59 59 58 58 59 59 59 59 60 59 59 58 57 58 57 57 56 53 49 47 45 44 46 50 51 50 47 46 45 44 44 44 44 46 49 52 52 50 51 51 48 48
70 70 73 75 74 72 73 72 72 71 69 66 61 58 59 59 59 62 63 63 60 57 57 59 60 60 63 65 64 63 63 62 62 62 61 61 61 60 60 60 59 58 58 57 57 58 57 54 51 48 48 48 48 48 49 50 49 47 46 46 45 44 44 45 47 49 50 52 53 54 55 54 52 51
75 75 77 79 79 79 77 74 74 74 73 72 70 67 65 65 65 66 68 69 67 63 62 63 63 63 65 67 66 65 65 64 63 62 61 61 60 59 59 59 58 58 56 55 55 54 52 49 47 48 49 49 49 48 48 48 47 47 47 47 46 45 45 47 51 54 56 57 58 59 58 58 57 55
78 79 82 84 85 84 81 79 78 77 75 72 70 68 66 66 68 70 71 72 71 69 67 67 67 66 67 69 69 67 66 65 64 63 61 60 59 59 59 58 57 56 53 51 50 49 48 48 49 49 50 49 49 49 49 49 48 48 49 48 49 49 49 50 54 58 60 60 59 57 55 56 58 58
82 84 86 86 85 84 82 78 75 69 64 59 54 53 54 58 64 71 74 76 75 73 71 70 70 70 69 70 70 70 69 67 64 61 60 58 58 58 57 56 54 50 48 48 49 49 52 53 52 50 50 50 49 50 50 50 49 49 50 50 51 52 52 53 55 58 58 57 55 53 53 53 55 56
86 89 87 83 82 80 76 73 69 63 58 53 47 45 48 52 57 61 65 70 74 76 77 77 77 76 75 73 72 70 66 63 60 58 58 57 57 56 54 52 48 46 47 51 52 53 58 58 54 52 52 51 51 52 52 51 51 51 52 53 54 54 55 55 55 55 55 56 55 55 53 53 54 55
88 89 86 82 80 78 76 74 71 65 62 60 54 51 53 55 55 53 52 55 62 67 72 76 78 78 77 73 69 64 59 57 56 56 56 55 54 52 50 47 45 47 53 55 54 56 60 60 56 54 53 52 53 54 54 53 53 53 54 56 58 58 58 58 58 57 57 57 58 57 56 56 56 57
84 87 86 81 74 74 78 80 78 72 68 67 65 62 62 62 61 58 55 56 59 63 67 72 73 72 69 63 58 55 53 53 53 54 53 52 51 50 48 47 48 54 60 60 57 58 61 61 59 57 55 54 54 55 56 56 56 57 57 58 58 60 61 62 62 61 61 61 60 60 60 59 59 59
76 84 87 79 70 70 76 78 75 71 68 70 73 71 68 68 67 65 63 62 63 65 66 66 65 61 57 54 52 53 54 55 57 58 57 55 53 52 53 57 60 64 67 64 61 61 62 62 63 61 58 56 56 56 58 59 59 59 59 59 60 62 64 65 65 65 64 65 64 63 62 62 62 62
72 81 84 78 71 69 70 67 64 62 62 64 67 70 72 72 70 67 66 64 62 62 62 61 59 56 54 54 55 57 59 60 62 64 65 64 60 58 63 69 69 68 67 66 64 63 63 64 64 64 62 60 59 59 60 61 61 62 62 62 63 64 66 66 67 67 67 67 67 66 65 65 65 65
75 78 77 73 70 66 60 51 46 47 49 48 52 61 69 72 72 70 69 67 65 65 63 59 56 55 54 55 55 55 55 55 58 64 71 73 70 66 68 71 70 68 68 67 65 64 64 64 65 65 66 67 65 63 64 65 64 64 65 67 67 67 68 69 69 69 70 70 69 68 68 67 67 67
72 74 72 67 64 58 45 31 26 27 28 30 40 56 67 71 74 74 72 71 71 69 64 58 55 53 51 50 50 49 50 51 55 61 67 72 71 69 68 68 66 66 67 67 66 65 66 66 67 67 70 74 72 68 68 69 67 65 68 70 71 70 70 71 72 71 72 72 71 70 70 69 70 70
60 63 64 64 62 53 34 21 21 23 25 33 46 60 69 72 74 75 73 70 68 65 60 56 53 50 48 49 50 50 51 53 55 58 61 64 66 66 65 65 65 66 67 67 67 68 69 69 70 70 71 74 74 73 72 72 69 69 71 72 72 73 73 73 73 72 73 74 72 72 72 71 71 72
50 49 54 60 59 45 28 23 28 30 34 44 53 58 61 62 64 64 61 56 54 55 53 52 51 51 51 52 53 54 54 56 57 57 59 62 63 63 64 65 67 68 69 70 70 71 71 71 71 72 73 74 76 76 76 75 72 71 73 74 74 74 75 76 75 74 73 74 73 73 74 74 74 74
48 44 48 56 51 37 30 33 37 38 43 49 52 54 54 53 53 50 44 40 43 48 49 49 52 54 54 54 55 57 58 59 60 60 61 62 63 64 66 67 69 72 73 73 72 73 74 74 73 73 75 77 79 80 80 78 75 73 74 75 75 75 76 77 77 76 75 76 75 75 76 76 76 75
48 42 46 51 45 36 37 40 42 45 51 53 55 57 58 54 50 44 39 39 44 48 49 50 53 55 56 56 58 59 60 61 61 61 62 64 65 67 68 69 71 73 73 73 72 73 75 76 76 76 76 78 80 83 83 80 78 76 77 78 77 76 76 77 78 78 78 78 77 77 77 77 78 77
48 44 49 49 42 40 44 43 43 50 56 58 59 61 59 52 46 42 43 47 48 49 50 53 55 56 57 58 58 58 60 60 60 60 61 63 64 65 67 68 69 71 72 72 72 73 75 76 77 77 78 79 80 82 83 82 81 80 81 82 80 77 77 78 80 81 80 80 80 78 77 78 80 80
54 52 54 51 47 50 50 46 47 54 59 60 62 62 57 49 44 45 48 50 48 47 50 54 56 57 57 57 58 58 59 58 57 59 61 61 63 66 69 71 72 72 73 73 73 73 74 75 77 80 81 82 83 84 84 85 86 84 83 83 83 80 79 80 82 82 82 82 81 79 79 81 82 81
60 59 59 55 55 57 57 55 57 61 62 61 61 58 50 45 46 49 51 50 47 47 50 54 56 55 56 56 57 57 56 56 58 61 62 64 68 71 73 74 74 72 71 72 71 71 72 73 76 81 84 86 86 85 84 87 89 86 83 82 84 84 82 82 83 83 83 84 83 83 84 84 82 81
64 62 61 61 63 63 61 61 62 62 61 58 54 49 45 46 50 51 51 52 51 51 54 55 54 54 54 55 55 55 56 57 60 63 64 66 69 71 72 74 74 73 74 75 73 71 71 72 75 79 84 87 88 86 86 87 88 86 83 83 85 85 84 84 85 85 86 88 88 87 87 85 83 83
63 63 64 64 65 63 62 63 63 62 58 52 48 48 49 50 52 52 52 54 55 55 55 54 52 53 53 53 55 56 58 60 62 64 65 67 68 70 73 75 77 79 81 81 76 73 73 76 80 82 84 85 85 86 89 90 86 83 84 86 87 86 84 83 84 85 87 91 92 91 89 85 83 85
60 66 68 67 66 64 64 64 63 60 55 49 47 49 50 51 52 51 52 54 55 55 54 53 52 53 53 53 55 57 59 61 62 63 64 67 70 72 75 79 81 83 84 80 75 74 77 81 83 85 85 84 80 79 85 90 88 84 86 87 86 86 84 83 84 86 88 91 94 95 94 86 80 81
64 67 69 68 67 65 65 65 64 62 58 52 48 49 50 51 50 48 48 51 51 51 52 53 54 54 54 55 56 57 59 61 61 63 67 70 72 74 77 81 82 81 80 78 75 76 81 85 88 90 93 92 87 81 82 87 90 89 89 86 84 84 85 85 86 88 89 91 95 98 99 93 83 79
66 66 66 66 65 65 67 66 66 67 62 53 49 50 52 53 51 48 49 49 48 50 53 54 54 55 54 54 56 57 60 62 64 67 71 73 76 77 76 76 77 78 78 78 78 80 85 89 93 97 99 99 98 93 87 86 89 91 89 83 81 83 86 87 88 89 90 94 96 98 101 101 92 84
64 64 64 62 63 65 62 58 61 68 64 55 50 51 53 54 52 50 50 50 49 52 53 53 54 54 55 56 58 60 63 65 68 71 74 75 76 75 73 74 78 82 83 82 81 84 89 92 96 99 100 99 100 99 92 83 79 81 84 84 83 85 88 90 90 91 94 96 95 95 98 99 94 90
59 65 67 64 61 57 50 50 62 71 66 56 53 53 53 53 52 50 51 52 51 50 51 51 53 55 57 59 62 63 65 68 71 74 76 76 74 72 73 78 84 86 86 84 83 85 90 94 97 100 100 100 100 100 98 89 77 74 81 89 91 89 90 93 96 98 97 94 90 90 94 96 96 97
60 64 64 57 52 50 52 58 68 71 63 56 55 54 50 49 50 51 51 49 48 48 49 51 54 55 56 59 61 64 67 71 74 76 76 74 72 72 78 84 87 88 88 88 86 86 89 93 98 100 100 100 100 99 101 99 89 80 83 93 95 93 94 98 100 97 93 90 90 91 94 96 98 100
65 62 56 48 47 53 61 66 68 66 61 55 52 49 46 46 49 51 49 46 46 48 51 54 56 56 58 61 64 67 72 75 76 77 76 74 73 76 83 87 87 90 94 93 89 88 88 91 97 100 100 100 100 98 99 100 94 87 88 94 95 95 98 100 97 91 89 93 96 98 97 97 98 99
67 63 58 54 55 60 63 66 67 64 57 50 47 46 45 45 47 47 45 44 46 48 52 56 58 59 62 65 67 70 73 74 75 77 80 79 76 77 83 88 88 91 95 95 91 89 88 90 95 99 98 97 97 97 98 100 96 91 91 93 95 97 100 97 90 88 92 97 99 100 99 99 99 99
64 60 59 61 63 62 62 65 66 60 51 47 46 45 44 43 43 43 43 45 49 52 54 58 61 62 63 66 68 72 75 74 75 79 80 78 76 79 84 88 88 89 92 92 89 87 87 88 93 97 96 95 96 98 99 100 98 94 92 92 96 99 98 92 88 92 97 99 99 100 100 99 98 99
68 68 69 69 70 68 65 65 62 54 47 46 46 43 41 39 39 40 42 46 51 55 57 59 61 62 64 66 70 75 78 77 78 79 75 74 79 84 84 84 85 84 85 86 85 84 85 88 92 95 94 93 96 99 99 97 96 93 92 94 98 98 94 89 89 94 99 99 100 100 100 100 100 100
77 77 73 69 68 68 64 59 54 48 45 44 41 38 36 35 36 39 42 46 52 57 58 58 59 61 64 68 72 76 78 78 77 76 74 76 81 81 78 79 81 80 81 83 84 83 83 87 92 95 94 93 95 97 96 94 91 90 91 95 97 94 90 88 89 92 95 98 100 100 99 100 101 100
77 75 69 63 61 60 56 51 47 44 42 41 38 37 36 35 38 43 48 51 54 56 54 53 56 61 65 70 76 79 78 75 74 75 78 81 80 77 76 78 79 78 79 81 83 84 84 86 91 94 93 92 92 91 91 90 89 89 91 93 94 92 88 85 85 88 89 92 98 100 99 98 100 100
Wind_Speed
15 17 19 19 18 14 11 13 16 17 17 16 14 18 21 18 10 4 2 4 7 10 9 8 8 8 8 10 10 9 10 11 11 10 10 11 11 12 13 15 16 17 18 18 17 17 16 15 15 16 18 19 20 20 20 18 16 14 13 12 12 11 11 11 10 10 10 10 10 10 10 10 10 10
14 16 18 18 19 18 16 15 15 15 14 14 15 19 22 22 18 12 6 4 8 12 10 8 10 10 9 9 9 8 8 9 10 9 9 10 10 11 12 13 13 13 14 15 16 16 15 15 14 15 17 19 22 23 24 23 20 18 16 15 14 13 13 13 13 13 12 12 11 12 12 12 12 12
14 15 16 16 16 17 17 16 15 14 11 10 15 22 25 24 23 21 13 5 8 14 11 9 11 11 10 9 8 8 8 7 7 8 8 9 9 9 9 9 8 8 10 12 12 12 13 13 13 13 14 17 19 22 24 24 22 19 17 16 15 15 16 16 16 15 13 12 12 13 14 14 14 13
13 15 15 13 12 13 15 15 14 12 10 8 12 22 27 26 23 22 17 9 8 14 12 10 12 11 10 9 7 7 8 7 6 6 6 6 6 6 6 6 6 6 8 9 9 9 9 10 11 12 13 15 17 19 22 24 23 20 17 16 16 15 16 17 17 14 12 13 15 16 16 17 17 17
11 13 13 11 10 10 11 12 13 12 10 9 12 20 25 25 23 20 18 14 11 12 12 12 13 11 10 9 6 6 7 7 6 6 5 4 3 3 3 3 4 4 5 6 7 7 7 7 8 10 12 14 15 17 20 23 23 21 18 16 16 15 15 15 15 13 13 15 17 18 19 20 20 20
9 9 10 10 9 8 10 12 13 13 12 12 15 21 23 23 21 18 16 17 14 11 12 14 14 12 11 10 8 6 4 4 5 5 5 4 4 3 1 1 1 2 3 5 7 7 6 5 6 8 10 12 14 16 20 22 22 20 18 16 16 15 14 14 13 12 13 15 18 19 21 22 24 23
9 7 8 9 8 8 10 11 12 13 14 14 17 20 20 20 19 16 15 16 16 13 13 15 15 14 12 10 9 7 5 4 3 3 3 5 6 5 3 1 1 1 2 4 6 8 7 5 3 6 9 11 12 16 20 21 20 19 17 16 16 15 14 13 13 13 13 14 16 18 20 23 25 26
10 9 9 9 8 8 10 10 11 13 15 15 16 17 16 16 15 14 14 14 16 15 14 13 13 14 12 10 10 10 8 5 6 5 5 7 7 6 4 2 1 2 2 4 6 8 9 7 4 4 7 10 13 18 20 19 18 17 15 14 14 13 13 13 14 14 13 14 14 16 19 22 25 25
12 11 10 10 8 8 10 10 10 13 14 15 15 15 14 14 13 12 11 11 13 15 14 12 9 9 10 9 9 11 8 5 4 3 3 4 4 4 3 2 0 1 2 3 4 5 6 5 4 5 8 13 17 19 19 18 17 16 14 13 12 11 11 12 14 15 15 14 15 16 19 21 22 23
12 12 11 11 9 8 9 9 9 11 12 12 13 14 14 13 13 12 10 9 11 13 13 10 7 6 6 6 7 10 9 6 4 3 6 8 7 6 5 3 2 1 2 1 2 3 5 7 8 11 15 18 19 19 19 18 17 15 14 12 10 10 10 11 13 15 15 15 15 16 18 19 19 20
11 11 11 11 11 9 8 9 8 8 10 10 11 11 12 12 12 13 11 10 11 11 10 8 6 4 4 5 6 8 8 7 5 5 7 8 6 5 3 1 1 2 2 2 3 5 9 12 15 17 19 20 19 18 18 16 16 15 14 12 11 12 12 12 12 13 15 15 14 16 16 16 17 18
10 11 11 11 11 10 8 8 7 7 8 10 10 10 10 10 12 13 13 11 11 10 8 7 6 4 3 3 5 8 8 7 6 6 7 6 3 2 1 3 3 3 3 4 6 10 14 17 18 19 20 18 16 15 14 14 15 15 13 12 12 13 13 13 13 13 13 13 13 15 15 14 15 17
11 12 12 12 11 11 10 8 7 7 7 8 9 9 8 8 10 11 10 9 9 8 7 6 5 5 4 2 4 6 7 5 5 5 4 4 3 2 3 3 4 5 8 10 12 15 18 20 19 19 18 16 14 14 13 13 13 12 11 11 12 12 13 14 14 13 13 13 13 15 14 13 13 15
12 12 12 12 11 11 10 9 9 9 8 7 8 8 7 6 6 7 7 7 7 8 7 6 5 4 3 2 4 6 5 5 5 4 2 1 1 3 5 5 6 9 13 16 17 18 19 18 17 15 14 13 12 11 10 10 10 10 10 11 11 12 12 13 13 13 13 13 14 16 16 15 14 14
14 13 12 12 12 11 11 11 10 11 10 9 8 7 6 4 4 5 6 7 7 8 8 6 5 5 6 6 7 7 7 5 3 2 2 3 5 7 7 7 9 13 16 17 17 17 17 15 13 11 9 9 10 10 10 10 10 11 12 12 13 13 12 11 10 10 12 13 14 16 17 16 16 15
14 15 14 13 13 12 11 12 12 11 10 9 8 7 6 5 5 5 5 6 6 7 8 7 5 5 6 7 6 6 5 3 2 3 4 6 7 8 8 8 10 14 15 15 15 15 14 11 9 7 7 7 9 11 11 11 12 12 12 13 12 12 11 8 5 6 8 11 13 15 15 15 15 15
15 16 16 15 14 13 12 12 12 11 10 9 7 5 5 4 4 4 5 5 5 6 6 6 5 4 4 4 4 3 2 1 3 6 8 9 9 9 9 9 10 12 12 12 12 12 9 7 5 5 6 7 9 11 12 12 13 14 13 13 12 11 10 8 6 5 7 10 12 14 15 15 14 14
15 16 17 17 16 16 14 14 13 11 10 9 7 6 6 5 4 4 4 4 5 5 5 5 5 4 4 4 3 1 2 4 6 8 8 8 9 9 8 8 8 9 8 9 10 8 5 4 4 6 8 10 11 12 12 14 15 15 15 15 14 14 13 12 10 10 10 11 12 14 14 15 14 14
15 15 16 18 18 17 17 15 13 11 10 9 9 9 9 8 8 7 6 6 5 3 3 3 4 5 5 3 1 2 5 6 7 8 7 8 8 7 7 6 5 5 7 9 8 5 4 6 7 9 11 13 14 13 13 15 16 16 16 17 18 18 16 15 13 12 12 12 12 12 13 13 13 13
16 16 17 17 16 17 17 16 13 11 9 9 9 10 10 9 9 8 8 8 7 6 6 6 5 5 3 1 2 3 5 5 5 6 6 6 6 5 6 5 4 6 8 9 7 5 5 8 11 13 15 17 18 16 15 15 15 15 18 20 21 21 20 17 16 14 13 12 11 12 12 12 12 12
16 18 19 18 17 17 17 16 13 11 9 9 9 10 10 10 9 9 9 8 7 6 6 5 4 2 1 1 1 2 2 3 3 4 5 5 4 5 5 3 4 8 8 7 7 8 8 10 13 15 17 18 18 17 15 15 15 18 21 21 20 19 18 17 16 15 13 12 11 12 12 12 12 13
17 19 20 19 17 17 16 14 12 11 10 10 10 11 12 12 10 10 10 8 8 7 6 4 3 2 1 1 1 1 2 3 4 4 5 4 4 4 4 4 6 8 6 6 10 11 11 12 14 16 18 18 16 14 13 15 18 20 20 18 17 16 15 16 15 14 13 12 11 11 10 10 11 12
18 19 19 17 16 15 14 12 11 10 10 10 10 11 12 13 11 10 10 9 8 7 5 4 3 2 2 2 1 1 2 3 4 4 4 4 4 4 4 5 7 5 4 7 13 14 13 13 14 15 14 12 11 11 13 16 19 20 18 17 17 18 17 17 17 15 13 12 11 10 9 9 10 12
21 20 18 16 16 14 13 11 10 9 8 8 8 9 11 12 11 11 10 10 8 5 3 3 4 3 1 1 1 2 3 4 4 5 5 4 4 3 4 4 5 4 4 8 12 13 11 12 13 12 10 7 9 13 16 18 19 18 17 17 19 20 19 19 18 16 13 12 12 11 11 10 10 11
22 22 21 19 16 14 12 10 9 8 7 8 9 9 10 10 9 9 9 8 6 4 4 4 4 3 3 3 3 2 3 4 4 5 5 4 3 3 3 4 5 5 5 7 10 10 10 10 11 12 11 9 11 16 18 19 18 17 17 17 20 21 20 20 19 16 13 14 14 13 12 12 12 12
23 22 22 21 18 15 13 11 10 9 9 9 10 10 9 9 8 7 6 5 5 5 5 5 5 5 4 4 4 4 4 4 4 3 2 2 1 2 3 4 5 6 6 7 8 8 9 10 10 11 12 12 14 16 18 18 18 18 18 18 20 21 20 20 19 17 15 16 16 15 15 15 14 14
24 24 23 22 19 17 14 12 11 11 10 10 10 9 8 7 7 6 6 5 5 6 6 6 6 6 4 4 4 5 5 4 3 2 2 2 3 4 4 4 5 5 6 7 7 7 8 10 10 11 13 14 15 15 15 15 18 20 21 21 20 20 20 19 18 17 18 19 19 17 16 16 16 17
25 26 25 23 20 18 15 13 11 10 9 8 8 7 6 5 5 5 6 6 6 6 6 6 6 6 4 3 3 4 4 4 4 4 5 6 7 8 8 8 8 8 8 8 8 7 8 10 11 11 12 14 14 14 13 14 17 20 22 22 22 21 20 18 17 18 19 20 19 17 16 17 17 18
26 26 25 23 21 19 16 13 12 10 9 8 6 5 4 4 4 5 6 7 6 4 4 5 6 5 4 3 3 3 4 5 6 8 10 11 12 12 12 11 10 10 9 8 8 7 8 10 11 12 12 13 14 15 15 16 18 20 20 21 22 22 19 17 17 19 19 18 17 16 16 16 17 18
25 25 25 23 21 18 15 13 12 11 10 8 6 4 4 4 5 6 6 5 3 3 4 5 5 4 3 2 2 3 5 8 10 11 13 15 14 12 11 10 10 9 9 8 8 8 9 11 12 12 12 12 13 15 15 16 18 20 19 19 20 20 19 17 18 18 17 16 15 15 16 17 18 20
24 25 24 22 19 17 14 13 12 11 10 8 7 6 6 6 7 7 5 3 2 3 5 5 5 3 2 1 2 5 8 10 11 12 14 14 12 10 10 10 11 11 11 10 10 10 11 13 13 13 13 14 14 15 15 15 17 20 19 16 16 17 18 18 18 17 16 16 17 17 18 19 20 21
23 25 24 21 18 16 14 13 12 10 9 8 8 8 9 9 8 7 5 2 2 3 4 4 3 2 0 2 4 7 9 10 10 11 12 11 9 9 9 10 12 13 13 13 13 13 14 15 15 14 14 14 14 14 14 14 15 16 16 14 13 15 17 18 18 18 17 17 18 19 19 19 19 18
20 22 21 19 18 15 14 13 11 10 10 9 9 10 10 9 8 7 5 4 3 3 3 2 2 1 2 3 5 7 7 8 8 8 9 9 9 9 10 12 13 14 14 14 16 17 17 16 15 14 13 12 11 10 12 14 13 12 12 13 14 15 16 16 15 17 17 17 18 19 18 18 17 15
19 22 22 21 19 16 14 14 13 11 10 10 11 11 11 9 8 6 6 5 5 4 4 3 2 2 2 4 5 6 6 7 6 7 8 8 9 10 11 12 12 12 12 14 17 18 19 18 16 15 14 12 10 9 8 10 11 11 11 12 13 14 14 13 14 16 17 17 18 18 18 19 18 16
25 26 24 21 18 16 16 16 13 10 10 12 13 13 11 9 7 5 5 5 5 4 4 3 2 2 3 5 6 6 7 6 6 6 7 7 7 8 8 9 10 11 12 15 17 18 18 18 18 18 17 15 14 11 7 5 8 11 12 11 11 13 14 15 16 18 18 18 17 16 17 20 21 19
30 29 27 23 21 21 20 16 12 12 13 15 15 14 12 10 8 6 6 6 6 5 4 4 3 3 4 5 5 6 7 7 7 7 7 6 5 6 8 10 11 12 13 15 16 16 17 17 17 17 15 12 10 8 9 10 10 9 8 9 12 16 17 17 18 19 19 18 17 16 16 19 22 22
32 32 30 27 26 24 20 15 13 14 16 16 16 15 13 11 10 9 8 6 6 5 5 4 4 4 4 5 5 6 6 7 6 6 5 4 6 8 11 12 13 13 14 15 15 16 16 16 16 14 12 8 4 4 10 16 12 4 4 11 17 19 18 18 19 20 18 18 18 18 18 20 21 17
32 32 31 29 26 23 18 15 15 16 17 17 18 17 14 12 12 11 8 6 6 5 5 4 4 3 3 4 4 5 5 5 4 3 3 5 7 9 10 13 14 15 16 16 17 17 16 16 15 14 11 8 4 3 9 16 15 10 11 17 19 17 16 16 17 17 17 18 19 19 17 15 13 9
28 31 29 26 22 19 15 15 17 18 18 18 18 17 16 14 14 12 10 7 5 5 5 4 3 2 2 3 4 4 4 3 2 2 3 5 7 8 10 13 15 16 17 18 18 18 17 16 16 15 13 11 9 8 11 15 18 18 17 16 14 14 14 14 13 15 16 18 20 19 14 8 6 7
21 25 25 22 18 15 14 16 18 20 19 18 18 18 16 15 15 13 10 7 6 6 6 4 2 2 2 2 3 3 3 2 2 3 4 5 6 8 11 13 15 15 16 18 19 19 19 18 16 15 14 12 11 11 12 14 17 18 16 13 12 13 12 10 11 14 15 16 17 18 15 11 9 9
10 13 15 15 13 12 15 17 18 18 18 18 19 17 15 14 14 12 9 8 7 7 6 4 2 2 3 3 3 3 2 3 3 3 4 4 6 9 12 13 14 15 15 16 19 20 19 18 16 14 11 9 8 9 9 9 13 15 15 13 12 11 9 8 11 12 13 13 15 16 15 12 9 10
11 12 14 15 14 14 15 17 17 18 21 21 19 16 15 14 13 11 10 10 8 7 6 4 3 3 4 3 3 2 2 3 3 3 4 5 7 11 13 13 14 15 15 16 18 19 18 17 16 12 9 7 7 7 7 9 12 14 13 12 10 8 7 8 10 9 10 13 14 13 12 10 8 8
19 19 19 18 18 17 18 19 20 22 23 21 19 17 17 15 13 11 11 10 9 8 6 5 4 4 4 4 3 1 1 2 3 3 4 5 8 12 13 13 13 14 15 16 18 18 18 17 15 12 9 7 7 6 9 11 13 12 11 10 7 5 6 8 8 8 10 13 14 12 9 6 4 5
17 18 15 12 13 16 18 20 24 26 24 22 20 19 17 15 13 12 12 11 10 8 6 5 5 5 5 5 4 3 1 2 4 4 4 7 9 10 11 12 13 15 16 17 18 18 18 17 14 11 9 8 8 8 9 11 11 11 9 7 4 4 6 6 5 7 9 12 14 14 9 4 3 5
14 14 12 10 11 14 17 21 25 25 24 23 21 19 16 15 14 13 12 11 9 7 6 6 6 6 6 5 5 4 2 0 1 3 5 7 8 8 10 12 14 16 17 18 18 19 19 17 15 12 10 8 8 8 9 10 10 9 7 4 2 3 5 4 3 5 9 11 12 13 11 8 6 7
Wind_Direction
110 105 101 96 95 106 129 148 158 163 165 166 172 173 165 154 144 137 150 170 177 174 165 148 144 138 122 115 117 118 111 103 99 106 111 102 96 97 95 94 90 81 71 62 58 56 55 57 58 59 58 54 49 42 35 27 18 10 3 356 352 351 351 348 345 341 337 333 331 329 326 323 317 310
119 113 109 102 97 106 127 147 159 167 178 187 187 184 179 170 160 155 155 176 191 186 179 167 158 153 143 128 121 124 123 111 103 109 116 107 99 102 100 98 93 79 67 59 56 55 53 52 50 49 50 47 44 40 34 29 22 16 10 4 358 356 356 354 350 346 344 343 343 341 338 334 328 321
128 126 121 114 105 106 121 137 148 151 160 180 187 187 188 185 176 165 153 154 193 187 179 170 160 150 146 142 126 122 129 123 107 108 118 112 103 104 102 97 91 77 63 55 54 54 51 46 39 33 32 32 32 31 28 25 21 15 10 6 4 3 0 357 351 347 349 354 357 355 352 347 341 334
131 134 132 123 114 112 117 126 135 141 144 153 181 192 190 186 182 175 159 142 172 185 181 168 163 158 153 152 141 127 129 135 128 121 128 128 116 109 102 91 83 74 60 50 48 49 47 46 40 32 26 23 23 23 20 17 15 11 5 359 356 355 356 356 355 356 1 3 1 359 357 353 349 344
136 134 131 120 114 116 114 119 131 140 144 143 164 184 184 178 179 179 163 144 153 179 184 174 170 173 171 165 162 149 137 142 149 147 153 164 160 139 113 93 81 73 56 39 35 34 35 44 41 33 27 21 18 16 11 8 7 5 360 352 347 342 343 349 354 360 1 359 357 356 355 354 351 348
146 142 129 113 109 113 113 121 134 140 143 145 152 165 170 169 174 180 167 151 152 167 182 183 179 183 189 186 182 176 158 154 164 170 181 195 206 209 197 75 64 70 44 22 18 11 7 20 36 35 26 16 12 7 0 357 357 357 352 345 340 336 333 337 343 347 348 348 350 351 352 352 350 348
153 153 139 121 113 117 117 118 127 136 140 145 147 152 158 161 167 176 172 159 155 158 171 184 188 192 199 203 203 201 191 191 207 209 220 234 231 228 237 305 323 304 349 1 0 352 344 343 12 28 17 7 2 355 349 349 350 350 345 338 335 332 328 327 329 332 333 336 342 346 348 349 348 347
154 153 148 141 132 131 129 121 123 132 136 141 143 145 152 160 164 171 173 168 164 162 165 176 189 197 205 213 217 215 212 219 235 245 257 256 248 242 240 248 314 323 321 336 340 335 331 326 327 359 2 352 346 342 342 344 345 343 338 333 332 331 328 325 323 323 323 326 334 342 346 347 347 347
164 164 159 156 153 147 142 134 132 135 135 136 138 140 144 150 156 163 169 174 172 170 172 173 174 187 202 217 223 221 217 208 207 220 228 213 204 201 197 187 150 1 326 324 334 338 343 348 350 352 345 340 339 340 343 344 342 338 333 330 331 332 333 330 323 317 315 319 328 339 346 348 349 349
172 175 171 167 169 167 160 155 148 144 143 138 135 135 137 139 142 145 152 166 172 174 179 181 169 163 180 199 210 215 217 206 181 150 137 139 142 143 141 138 116 39 17 48 58 36 21 11 359 347 341 341 342 343 344 343 340 337 333 329 332 338 341 338 326 315 311 313 323 335 343 348 351 352
189 190 186 180 180 180 176 174 171 163 159 152 140 134 135 137 136 133 136 146 157 163 168 176 178 167 155 162 179 198 212 211 196 172 155 144 136 137 138 122 32 9 15 33 16 356 350 347 343 339 338 340 341 341 343 342 339 337 334 330 331 335 338 338 331 321 312 310 319 331 339 345 349 351
211 211 205 196 191 190 186 183 187 186 177 168 156 143 138 139 135 131 132 135 137 141 145 152 169 182 178 164 168 183 195 193 182 183 186 187 199 219 274 307 315 315 312 315 322 329 334 335 333 332 333 335 337 336 332 329 327 328 329 329 330 332 333 332 330 324 316 312 318 327 333 343 347 346
223 220 214 210 205 201 197 190 188 189 181 171 167 162 155 149 141 138 139 141 140 142 144 146 160 177 189 206 191 182 185 181 168 174 188 200 226 271 296 301 310 321 323 321 319 324 331 331 329 329 330 330 329 326 324 327 332 334 335 338 338 336 333 330 326 323 318 316 318 322 327 337 342 341
222 217 212 211 208 201 196 192 188 189 185 174 167 167 168 163 158 157 155 154 156 159 158 159 166 164 151 158 175 164 154 152 154 156 157 138 345 324 315 312 321 331 333 329 325 326 329 330 329 329 330 333 335 337 343 349 346 339 336 336 334 332 331 331 329 325 319 317 320 322 324 327 329 331
215 205 199 200 198 191 186 184 183 186 187 185 182 182 188 197 202 196 179 166 167 170 167 165 167 159 138 131 141 141 133 133 131 97 37 6 353 349 345 331 326 332 335 333 329 328 329 329 331 335 341 353 360 357 354 350 343 339 336 331 326 321 315 315 324 329 324 321 322 320 317 314 314 316
204 193 187 188 185 180 181 184 185 187 189 194 200 202 205 206 203 203 198 188 186 184 177 168 160 155 145 138 139 139 132 116 69 15 355 347 344 348 348 332 325 331 333 331 331 333 333 333 337 346 351 356 358 352 346 344 342 341 340 336 333 327 315 306 312 327 325 321 317 313 308 304 301 302
189 185 179 177 174 173 178 181 180 180 178 177 178 182 189 190 185 192 200 200 201 199 191 184 177 168 162 159 155 149 132 20 349 337 336 336 335 336 335 328 332 336 331 328 334 338 342 342 337 335 334 338 343 340 336 336 335 332 332 333 335 337 333 325 322 322 321 320 317 314 310 304 296 291
184 185 179 171 167 167 168 167 166 164 158 149 141 138 141 144 145 152 164 178 194 206 214 220 216 198 186 186 181 169 340 336 334 331 328 326 325 327 329 332 343 345 335 332 337 342 351 353 330 320 322 328 333 331 326 324 325 324 326 330 332 334 333 329 324 321 319 319 320 318 314 308 302 296
185 187 183 175 170 167 166 165 165 161 154 143 135 135 135 130 127 125 125 128 130 137 154 172 177 168 161 167 203 331 334 328 326 325 323 323 324 326 330 340 1 3 343 336 337 342 349 342 329 323 322 323 326 325 317 314 315 317 321 325 327 327 326 323 319 316 313 313 315 315 313 312 310 307
188 188 186 180 176 173 171 169 169 167 161 154 148 148 146 140 136 132 127 124 117 111 115 123 133 141 138 94 334 332 328 324 327 329 331 332 328 327 333 347 8 356 338 334 339 344 341 334 329 322 318 318 319 318 313 309 309 312 317 319 319 319 318 316 312 309 309 309 309 311 311 312 314 314
189 188 187 183 177 174 172 170 170 170 167 165 165 166 162 156 151 144 138 135 133 131 133 132 126 115 77 16 5 0 343 335 336 337 341 338 326 329 345 356 349 337 329 328 340 344 338 332 329 324 318 317 318 314 307 303 307 315 321 323 323 322 322 320 316 312 309 308 309 313 316 317 318 318
181 179 180 181 177 173 170 168 169 171 172 174 178 180 175 169 163 156 150 148 146 144 141 131 119 118 139 155 176 238 282 302 310 314 323 320 311 324 345 346 336 332 325 329 340 340 334 329 330 329 324 321 318 309 300 305 318 328 333 336 339 340 339 337 336 330 322 318 316 318 321 323 326 327
171 172 173 178 180 177 172 172 177 181 185 185 184 188 184 174 165 159 153 149 147 144 133 122 130 154 172 187 229 284 312 323 327 329 330 326 325 330 337 342 340 332 325 336 339 337 332 329 331 333 330 322 315 310 308 317 329 335 336 336 340 342 342 341 342 340 336 332 330 327 326 328 332 332
172 174 176 179 183 183 177 176 180 181 187 187 179 183 188 179 166 159 155 155 159 160 150 151 162 168 157 124 62 39 36 27 25 31 36 31 24 11 354 350 348 333 324 335 338 337 334 329 328 331 329 308 298 310 318 324 331 334 334 333 334 337 338 338 339 341 341 340 340 337 335 335 336 336
182 182 184 183 184 186 182 175 171 168 169 168 160 163 176 175 163 159 162 170 182 188 180 172 164 148 131 118 100 73 52 48 47 49 54 58 54 35 8 354 346 339 333 334 337 336 332 328 328 330 324 304 296 306 315 321 328 331 331 332 332 333 335 335 337 340 341 341 343 343 340 338 337 335
190 188 188 186 183 183 180 170 164 160 158 157 154 154 161 165 167 175 187 198 196 177 168 165 148 128 122 110 92 79 68 62 56 48 54 56 24 353 347 341 337 335 329 327 331 331 329 329 329 327 321 310 306 308 309 313 323 328 329 329 330 331 333 333 335 338 339 340 343 342 339 336 333 330
196 192 190 187 181 178 176 168 160 156 154 154 153 152 154 161 170 180 187 188 176 159 155 153 139 123 109 90 79 74 68 65 53 28 358 329 316 315 319 322 324 324 320 318 320 323 327 328 326 325 323 316 310 307 303 308 319 324 324 326 328 330 332 333 333 334 335 337 338 337 335 334 333 332
203 195 192 188 180 177 174 166 158 154 154 154 151 146 147 152 161 169 172 170 163 152 145 141 134 124 110 93 77 59 45 31 7 349 339 331 325 319 313 308 306 308 310 311 309 311 319 324 324 323 324 320 312 305 301 308 317 319 320 323 326 329 332 332 331 331 334 335 335 335 333 329 328 329
209 200 194 187 180 177 173 168 164 162 160 158 151 143 141 146 157 164 163 160 157 152 145 142 139 134 120 92 55 30 11 350 340 337 334 332 328 323 320 317 314 316 322 322 319 317 318 323 324 322 322 320 314 309 307 310 313 314 316 318 320 325 331 332 331 331 333 334 332 330 327 323 322 325
208 197 190 184 178 176 174 174 175 170 164 161 156 155 159 163 167 168 160 154 161 166 160 156 152 141 116 70 29 2 342 335 337 339 338 336 334 334 336 338 339 345 349 344 338 331 324 324 327 328 325 322 318 315 314 311 308 310 314 315 315 320 328 334 335 335 335 334 329 323 318 315 316 318
203 188 182 179 176 174 174 178 179 171 164 163 163 166 172 170 168 167 160 149 154 158 155 154 151 139 105 27 352 341 338 341 346 347 345 343 342 344 346 343 343 348 350 347 344 336 328 327 330 331 327 323 318 315 314 309 303 304 310 316 316 316 323 332 335 334 334 329 321 315 313 312 314 316
185 178 174 171 170 172 174 176 174 166 161 161 160 163 168 170 172 172 169 165 164 157 151 152 153 154 307 337 341 342 344 348 349 347 347 348 347 346 341 332 331 336 339 340 342 339 333 331 332 330 327 323 318 313 309 303 300 300 308 318 322 319 323 331 331 328 329 324 316 314 315 315 317 321
172 173 173 172 174 178 179 179 177 174 169 164 163 166 169 172 180 188 194 205 206 193 190 198 210 246 313 337 342 343 343 342 342 344 349 350 343 336 330 323 324 329 331 333 338 339 337 336 334 330 328 325 320 315 305 297 299 307 314 319 323 324 327 333 331 329 330 328 321 321 321 318 319 325
184 182 180 180 181 182 185 188 186 181 178 175 173 174 174 176 184 198 212 220 215 209 218 235 247 273 313 326 329 330 328 328 335 345 348 341 331 327 328 328 329 331 330 330 335 338 338 339 337 335 337 337 331 327 313 292 296 312 319 318 323 328 332 336 335 331 332 331 326 323 321 321 324 330
187 183 180 178 180 186 192 196 193 190 194 192 185 182 183 182 187 204 218 216 208 211 227 243 247 262 300 318 323 324 320 319 330 337 333 326 322 326 334 336 332 330 330 330 334 337 337 338 338 337 339 341 338 337 340 318 304 308 312 319 330 335 333 332 331 330 333 335 331 325 322 321 324 333
183 184 183 181 184 191 196 198 199 203 205 198 191 192 194 192 194 209 215 209 210 222 236 245 252 274 306 320 323 321 314 310 315 320 319 320 330 341 344 339 333 332 333 332 333 335 336 337 338 333 327 330 334 329 328 333 328 312 308 325 335 332 330 329 328 329 333 335 333 329 321 314 318 328
186 188 188 186 188 193 196 198 205 211 208 201 197 199 201 198 202 211 212 206 206 216 227 237 252 276 302 310 312 313 308 303 304 310 316 334 349 350 346 340 336 337 336 333 334 337 336 334 335 329 316 315 327 311 314 328 338 333 312 325 327 327 328 328 325 326 331 330 328 328 322 315 318 330
192 188 187 187 188 191 196 205 216 217 211 205 203 203 202 203 206 206 200 190 188 193 203 215 229 250 270 279 286 291 289 287 293 306 331 351 353 350 345 340 338 339 338 335 335 338 336 332 332 329 317 305 298 293 310 320 324 321 320 322 322 324 329 328 322 324 329 330 329 331 330 326 331 351
198 191 189 189 190 193 198 208 218 218 213 209 206 199 193 195 198 192 181 175 175 178 184 193 200 217 240 255 266 273 275 280 296 325 350 356 352 345 340 337 336 337 335 332 332 335 336 334 334 332 322 307 297 296 299 299 301 311 323 328 327 329 330 327 324 328 333 336 338 343 351 8 31 36
201 197 194 190 190 197 205 210 215 218 214 206 196 188 185 188 188 181 174 173 174 173 176 181 184 201 238 269 281 279 286 313 329 338 350 351 338 335 338 338 336 334 331 327 328 331 333 333 335 333 326 314 304 301 297 290 295 312 332 343 341 337 334 332 336 339 340 344 349 354 2 21 39 30
203 202 200 193 192 203 213 216 217 214 204 191 182 181 183 183 179 174 171 172 174 178 185 190 204 246 273 293 295 289 312 346 347 343 349 342 328 330 338 340 337 335 332 326 324 327 330 334 338 336 329 321 311 305 300 292 300 320 340 350 344 340 340 342 347 350 354 359 1 360 2 12 21 17
197 203 212 213 210 212 220 226 220 204 189 181 177 176 174 170 168 169 169 169 174 185 195 201 224 266 284 287 285 300 350 10 6 358 350 336 327 331 336 338 338 337 332 325 324 327 332 339 344 341 333 333 331 314 299 294 303 318 338 348 345 341 346 350 359 15 24 19 12 3 359 4 9 6
194 205 215 219 217 220 228 227 211 191 178 172 171 171 167 165 168 172 172 174 180 187 195 210 238 263 268 259 251 254 347 3 1 0 340 323 327 333 335 337 339 337 332 330 332 335 339 345 348 346 343 348 346 322 304 306 310 318 332 342 344 348 355 1 19 44 44 31 20 10 0 2 9 1
199 209 217 221 222 222 217 201 185 176 171 168 168 168 168 170 172 173 174 179 183 186 201 228 244 249 249 246 239 226 243 337 348 342 322 318 325 331 331 332 335 335 337 339 340 340 343 348 352 355 355 355 350 333 319 317 319 322 331 341 341 349 4 18 45 56 43 31 23 19 19 29 33 13
202 207 214 217 209 197 183 171 166 165 165 165 163 163 165 167 167 167 169 175 183 198 223 239 241 242 245 242 233 225 221 286 316 307 313 325 331 330 329 334 336 338 342 344 341 338 342 348 355 1 3 1 358 351 337 327 321 317 325 338 330 338 7 34 73 52 33 26 22 23 34 52 54 34